This is the latest recevied weather packets stored in our database for station/object SA3PJN-WX. If no packets are shown the sender has not sent any weather packets the latest 10 day(s).
| Time | Temp. | Humidity | Pressure | Rain* | Wind** | Luminosity | Snow |
|---|---|---|---|---|---|---|---|
| 1777644358 | 18.89° C | 35% | 971.2 hPa | - | - | - | - |
| 1777644058 | 18.89° C | 35% | 971.3 hPa | - | - | - | - |
| 1777643758 | 18.89° C | 35% | 971.5 hPa | - | - | - | - |
| 1777643428 | 18.89° C | 34% | 971.7 hPa | - | - | - | - |
| 1777643128 | 18.89° C | 34% | 971.8 hPa | - | - | - | - |
| 1777642828 | 18.89° C | 33% | 971.7 hPa | - | - | - | - |
| 1777642528 | 19.44° C | 35% | 971.9 hPa | - | - | - | - |
| 1777642228 | 20° C | 33% | 971.8 hPa | - | - | - | - |
| 1777641928 | 20° C | 35% | 972 hPa | - | - | - | - |
| 1777641628 | 20° C | 35% | 972.1 hPa | - | - | - | - |
| 1777641328 | 20.56° C | 36% | 972.1 hPa | - | - | - | - |
| 1777641028 | 20.56° C | 35% | 972.2 hPa | - | - | - | - |
| 1777640728 | 21.11° C | 38% | 972.3 hPa | - | - | - | - |
| 1777640428 | 21.11° C | 34% | 972.2 hPa | - | - | - | - |
| 1777640128 | 20.56° C | 34% | 972.3 hPa | - | - | - | - |
| 1777639828 | 20.56° C | 34% | 972.5 hPa | - | - | - | - |
| 1777639528 | 20.56° C | 34% | 972.5 hPa | - | - | - | - |
| 1777639227 | 20° C | 35% | 972.8 hPa | - | - | - | - |
| 1777638927 | 20° C | 37% | 972.8 hPa | - | - | - | - |
| 1777638627 | 19.44° C | 37% | 972.9 hPa | - | - | - | - |
| 1777638327 | 18.89° C | 37% | 972.8 hPa | - | - | - | - |
| 1777638027 | 18.89° C | 36% | 972.9 hPa | - | - | - | - |
| 1777637727 | 18.89° C | 35% | 972.8 hPa | - | - | - | - |
| 1777637427 | 19.44° C | 36% | 972.9 hPa | - | - | - | - |
| 1777637127 | 19.44° C | 35% | 973 hPa | - | - | - | - |
* Rain since midnight (hover to see other rain measurements)
** Current wind speed in m/s (hover to see current wind gust speed)